User: anonymous   Login
Location: Unspecified
(0.0000°N, 0.0000°E)
Time: 20:22:41
(UTC+00:00)
Language:

Tiros 10 - Orbit

View from above orbital plane
View from above orbital plane
View from above satellite
View from above satellite

Ground track
Ground track

The orbit data is extracted from the following two-line orbital elements,

1 01430U 65051A   17022.19030615  .00000012  00000-0  16668-4 0  9996
2 01430  98.1193 183.6619 0056016 338.3875  21.4951 14.40175452702082
Epoch (UTC): 22 January 2017 04:34:02
Eccentricity: 0.0056016
inclination: 98.1193°
perigee height: 718 km
apogee height: 798 km
right ascension of ascending node: 183.6619°
argument of perigee: 338.3875°
revolutions per day: 14.40175452
mean anomaly at epoch: 21.4951°
orbit number at epoch: 70208

The dashed part of the orbit path shows where the satellite is in the earth's shadow,  

DLR